星链-4534 (STARLINK-4534 )

导读

STARLINK-4534是美国SpaceX公司星链(Starlink)星座的组网卫星,于2022年8月10日发射入轨。作为星链低轨互联网星座的组成部分,它运行在近地轨道,为全球偏远地区提供低延迟高速宽带服务。该卫星采用平板设计,配备氪离子推进系统与自主碰撞规避功能,设计寿命约5-7年,退役后会受控坠入大气层烧毁。

Basic Information
目录编号:
53395
目录名称:
STARLINK-4534
国际标识:
2022-097H
轨道中心:
EARTH
卫星名称:
星链-4534
卫星全名:
星链-4534 (STARLINK-4534 )
卫星状态:
在轨 (已飞行1407 天)
发射日期:
2022-08-10 UTC
国别 :
美国 (US)
星等 :
--
Orbit Information
数据来源 国际轨道数据 AOE轨道数据
星历时间 2026-06-17T06:19:06+0800
13小时前
查看轨道信息
2026-06-14T23:00:00+0800
2天前
查看轨道信息
半长轴 6917.907km 6917.901km
偏心率 0.0001191 0.000117
轨道倾角 53.160° 53.161°
近地点辐角 89.556° 106.992°
升交点赤经 38.528° 48.893°
平近点角 270.557° 326.338°
近地点 538.946km 538.954km
远地点 540.594km 540.574km
周期 95.438分钟 95.438分钟
每日圈数 15.088316 15.088333
Detailed Information
固有亮度:
5
最大亮度:
2.5
卫星平台:
Starlink v1.5
覆盖范围:
全球
运营商:
太空探索技术公司
运营商所在国:
美国
制造商(研发单位):
太空探索技术公司
制造商所在国:
美国
使用方式:
暂无
Satellite Introduction
星链(Starlink)计划是由太空探索技术公司(SpaceX)提出的一个巨型低轨卫星互联网星座项目,计划在2019年至2024年间在太空搭建由约1.2万颗卫星组成的“星链”网络,其中1584颗将部署在地球上空550千米处的近地轨道,并从2020年开始工作。该卫星仍在工作。
2D Orbit Map
3D Orbit Map
Orbit Altitude Analysis Chart
Orbit Inclination Analysis Chart
Orbit Comprehensive Analysis Chart
View Comprehensive Chart